Location: Edmonton
(53.5500°N, 113.5000°W)
Time: 15:46:18
(UTC-06:00)

Daily predictions for brighter satellites

Satellite Brightness Start Highest point End
(mag) Time Altitude Azimuth Time Altitude Azimuth Time Altitude Azimuth
BREEZE-M DEB (TANK) 4.2 21:17:45 10° SW 21:20:45 31° SSE 21:27:37 10° E
Cosmos 839 Rocket 4.3 21:20:25 10° SW 21:27:37 83° NW 21:33:53 10° NE
ERS-1 Rocket 3.2 21:23:49 10° SE 21:28:43 54° ENE 21:33:37 10° N
Cosmos 1455 2.2 21:26:35 10° SSW 21:30:23 85° WNW 21:34:11 10° N
SAR-Lupe-1 4.3 21:28:06 10° S 21:31:40 72° WSW 21:35:17 10° NNW
NOSS 3-2 (C) 4.4 21:25:28 10° WSW 21:31:42 57° NNW 21:38:42 10° NE
Cosmos 220 Rocket 4.4 21:28:34 10° NNW 21:33:02 70° WSW 21:37:27 10° SSE
Cosmos 1869 3.3 21:31:05 10° S 21:34:58 62° E 21:38:54 10° NNE
Cosmos 1908 Rocket 4.2 21:40:02 10° N 21:44:08 38° ENE 21:48:11 10° SE
Cosmos 2026 Rocket 4.1 21:38:35 10° NNW 21:44:55 85° W 21:51:06 10° S
SeaSat 1 2.6 21:40:17 10° SE 21:45:10 66° NE 21:50:06 10° NNW
H-2A R/B 3.8 21:44:43 10° ESE 21:47:45 19° NE 21:50:52 10° N
USA 186 4.1 21:46:38 10° SSW 21:48:53 22° W 21:51:15 10° NW
Cosmos 1697 Rocket 3.3 21:43:49 10° SW 21:49:25 63° NW 21:55:03 10° NNE
CENTAUR R/B 2.8 21:43:35 10° SW 21:49:56 84° NW 21:57:17 10° NE
MetOp-A 4.2 21:50:13 10° SSE 21:55:30 66° ENE 22:00:50 10° NNW
Cosmos 1933 3.8 21:51:58 10° SSE 21:55:47 42° E 21:59:37 10° NNE
Abrixas rocket 3.6 21:53:45 10° SSW 21:56:16 20° SSE 21:58:01 14° ESE
Cosmos 1782 Rocket 4.4 21:54:00 10° N 21:57:59 33° ENE 22:01:21 13° SE
Okean 2 Rocket 4.3 21:54:25 10° N 21:58:21 28° ENE 22:01:36 13° ESE
Cosmos 1867 3.6 21:52:56 10° NW 21:58:27 80° NE 22:03:20 13° SE
YAOGAN 6 2.7 21:55:33 10° S 21:59:12 80° WSW 22:02:50 10° NNW
Cosmos 2263 Rocket 2.3 21:54:50 10° NW 22:00:25 76° WSW 22:05:59 10° SSE
Meteor 1-29 3.2 22:01:17 10° NNE 22:04:48 76° WNW 22:08:16 10° SSW
Cosmos 1733 Rocket 3.4 22:01:28 10° NNW 22:05:54 69° W 22:10:19 10° S
COSMOS 2428 4.4 22:05:01 11° ESE 22:06:22 12° E 22:08:37 10° ENE
Cosmos 1655 Rocket 4.3 22:00:39 10° NNW 22:07:04 74° W 22:13:24 10° S
Helios 1B rocket 2.9 22:03:44 10° N 22:07:50 66° WNW 22:11:53 10° SSW
H-2A R/B 2.6 22:04:41 13° SE 22:08:44 42° ENE 22:13:23 10° N
Terra 3.1 22:05:46 13° ESE 22:09:11 27° ENE 22:13:09 10° N
Cosmos 1634 Rocket 4.4 22:03:41 10° SSW 22:09:58 71° WNW 22:16:20 10° N
Cosmos 2322 Rocket 2.3 22:04:36 10° S 22:10:04 56° ESE 22:15:35 10° NE
Lacrosse 4 Rocket 2.9 22:07:35 10° NW 22:11:27 33° WSW 22:15:22 10° S
Cosmos 1825 3.5 22:09:12 10° NNW 22:12:46 39° W 22:16:19 10° SSW
Cosmos 1862 4.0 22:11:00 10° NNW 22:14:56 55° W 22:18:52 10° S
Cosmos 1862 Rocket 3.5 22:13:27 10° S 22:17:55 77° E 22:22:26 10° NNE
Meteor 2-10 Rocket 4.0 22:13:04 10° S 22:18:40 52° E 22:24:16 10° NNE
SL-08 RB Rocket 3.8 22:16:00 15° SSE 22:19:44 61° ENE 22:24:14 10° N
USA 267 3.4 22:14:12 10° ENE 22:20:47 82° NNW 22:27:21 10° WSW
Cosmos 2360 Rocket 2.9 22:16:23 10° SSE 22:21:17 31° ESE 22:26:12 10° NE
Cosmos 1980 Rocket 2.9 22:16:23 10° SW 22:22:00 60° NW 22:27:41 10° NNE
Cosmos 968 Rocket 3.5 22:16:56 10° NNW 22:22:09 89° WSW 22:26:25 16° SSE
NOAA 11 4.4 22:24:39 10° S 22:30:09 74° WSW 22:35:40 10° NNW
YAOGAN 11 4.3 22:27:47 12° S 22:31:50 69° WSW 22:36:11 10° NNW
Cosmos 2242 Rocket 4.4 22:27:40 10° SSW 22:32:06 54° WNW 22:36:31 10° N
Cosmos 2266 Rocket 4.0 22:26:28 10° N 22:32:43 84° ENE 22:38:21 14° SSE
ASTEX 1 4.5 22:30:23 18° ESE 22:33:11 31° ENE 22:37:32 10° N
Okean 1-7 3.8 22:32:09 21° SE 22:34:25 34° E 22:38:26 10° NNE
Cosmos 1782 4.2 22:34:53 20° ESE 22:35:56 22° E 22:39:04 10° NE
SL-16 R/B 2.1 22:31:25 10° SSW 22:37:05 81° ESE 22:42:48 10° NNE
Cosmos 1703 Rocket 3.8 22:34:30 17° SSE 22:37:43 51° E 22:42:02 10° NNE
CZ-4C R/B 3.3 22:31:47 10° NW 22:38:13 54° NNE 22:44:55 13° ESE
SPOT 5 2.9 22:34:04 14° S 22:38:16 76° WSW 22:42:55 10° NNW
Cosmos 2221 Rocket 4.0 22:37:29 21° SSE 22:40:00 42° E 22:44:12 10° NNE
ATLAS 3B R/B 4.1 22:34:55 10° WNW 22:41:29 37° N 22:47:45 10° ENE
ATLAS 5 CENTAUR R/B 2.8 22:37:16 10° NW 22:42:56 54° SW 22:47:28 18° SSE
Cosmos 1633 3.9 22:42:29 10° N 22:45:39 27° ENE 22:46:49 22° E
Cosmos 2333 Rocket 4.1 22:46:51 12° E 22:47:02 12° E 22:49:19 10° ENE
Cosmos 2278 Rocket 3.0 22:47:02 10° NNW 22:52:25 41° NE 22:56:09 19° ESE
Meteor 1-26 Rocket 4.2 22:48:56 10° S 22:54:37 80° E 23:00:28 10° NNE
CARTOSAT-1 3.8 22:52:48 27° SE 22:54:56 55° ENE 22:59:12 10° N
SPOT 1/Viking Rocket 3.7 22:52:06 19° S 22:55:58 76° WSW 23:01:14 10° NNW
Cosmos 2237 Rocket 4.2 22:56:36 11° E 22:56:36 11° E 22:57:38 10° E
ARGOS 3.6 22:53:21 14° S 22:57:51 59° WSW 23:03:11 10° NNW
Cosmos 1844 Rocket 2.6 22:58:39 10° NNW 23:04:17 86° ENE 23:07:24 27° SSE
Cosmos 2084 3.7 23:01:47 10° NW 23:05:31 52° NE 23:07:20 27° E
Cosmos 1602 4.4 23:08:39 10° N 23:12:20 41° ENE 23:13:17 34° ESE
PSLV R/B 2.9 23:12:57 62° ESE 23:13:09 65° ENE 23:15:58 10° N
Cosmos 1898 Rocket 4.4 23:08:36 10° NNW 23:13:27 38° NE 23:16:08 23° ESE
Meteor 1-11 Rocket 3.9 23:12:32 10° N 23:18:00 56° ENE 23:20:33 30° SE
Cosmos 1777 Rocket 4.3 23:15:18 10° NNW 23:20:32 61° WSW 23:23:17 27° S
Meteor 1-10 Rocket 4.5 23:17:48 28° SSE 23:20:51 56° E 23:26:35 10° NNE
SeaSat 1 4.0 23:19:46 14° SSW 23:23:04 27° WSW 23:27:14 10° NW
H-2A R/B 2.1 23:21:27 33° S 23:23:18 71° WSW 23:27:40 10° NNW
Cosmos 1536 3.8 23:22:52 10° N 23:26:38 35° ENE 23:27:30 31° E
Cosmos 2219 Rocket 3.1 23:27:00 28° ESE 23:27:41 29° ESE 23:32:26 10° NE
Landsat 7 4.3 23:29:02 26° SSW 23:31:32 54° W 23:36:14 10° NNW
Abrixas rocket 4.2 23:29:33 10° WSW 23:30:44 19° SW 23:30:44 19° SW
Okean 2 Rocket 4.0 23:32:18 10° NNW 23:36:37 44° W 23:38:59 23° SSW
DMSP B5D2-2 4.0 23:31:20 10° NNE 23:36:38 77° ESE 23:39:21 30° S
S3M 4.2 23:36:14 33° SSE 23:38:49 54° E 23:44:51 10° NNE
Cosmos 2292 Rocket 4.3 23:36:09 10° N 23:38:46 25° ENE 23:38:46 25° ENE
CZ-4C R/B 3.2 23:39:34 54° SE 23:40:16 70° ENE 23:43:58 10° N
Cosmos 2237 4.2 23:37:21 24° SSW 23:40:53 68° ESE 23:46:35 10° NE
CENTAUR R/B 4.0 23:35:10 10° W 23:41:31 43° NNW 23:48:45 10° NE
Cosmos 2297 4.4 23:37:09 10° NNW 23:42:41 46° NE 23:45:40 25° ESE
Iridium 4 Rocket 3.0 23:39:00 10° N 23:43:14 63° E 23:44:04 50° SE
Cosmos 2263 Rocket 4.4 23:40:19 10° WNW 23:43:25 15° W 23:46:32 10° SW
NOSS 3-1 (C) 4.2 23:43:38 30° ESE 23:44:02 30° ESE 23:49:36 10° ENE
Cosmos 1300 Rocket 3.5 23:41:13 10° N 23:45:34 71° ENE 23:46:35 50° SE
Spot 4 3.8 23:44:31 42° SSE 23:46:09 90° WSW 23:50:58 10° NNW
USA 229 DEB 3.7 23:39:37 10° SSW 23:46:21 62° SE 23:53:14 10° NE
USA 229 3.7 23:39:44 10° SSW 23:46:27 62° SE 23:53:20 10° NE
Terra 2.3 23:44:38 31° SSW 23:46:40 55° W 23:51:22 10° NNW
H-2A R/B 3.2 23:45:18 19° SSW 23:48:16 35° W 23:52:48 10° NNW
IGS 5A 4.0 23:48:08 35° SSW 23:49:27 50° W 23:53:32 10° NNW
COSMOS 2428 2.7 23:46:58 32° S 23:49:31 62° ESE 23:55:10 10° NE
CZ-4 R/B 3.8 23:45:31 10° NNE 23:50:15 67° ESE 23:51:39 44° SSE
Cosmos 2369 Rocket 4.4 23:46:34 10° NNW 23:50:35 20° NNE 23:54:37 10° ENE
Cosmos 2322 Rocket 3.7 23:49:10 10° WSW 23:54:23 38° NW 23:59:39 10° NNE
